Showing default

AEHF 4 (USA 288), 43651

Orbit data source: Space-Track

AEHF 4 (USA 288), 43651 is a payload satellite owned by USAF MCSW (US) in GEO that was launched on Wed, 17 Oct 2018 UTC via an ATLAS V 551 launch vehicle from the Air Force Eastern Test Range (AFETR). Payload-class satellites include a variety of spacecraft equipped with specific instruments for various scientific and technological missions. These include communications satellites like Starlink; space stations such as the ISS; scientific satellites like the Hubble; Earth observation satellites from companies like Planet Labs, Umbra, and HawkEye 360; GPS; miniature CubeSats for education and research; and military/defense satellites.

Loading next visibility...
Identifier
43651, 2018-079A
Orbit
GEO
Country
Flag of USUS
Related business
Manufacturer
LMSS
Mission
Operational Defense Communications
Bus & Motor
A2100M, BT-4/AJ-EP?
Mass
6,200 kg wet, ~4,000 kg dry
Launch date (UTC)
2018-10-17 (7 years ago)
Launch vehicle
ATLAS V 551
Launch site
Air Force Eastern Test Range (AFETR)
Object type
Payload
Rocket body
Debris
Shape & HBR
Box + 2 Pan, 13.5 m
Radar Cross Section
35.027 m², Large (>1 m²)

Expand to show TLE details & history
Last TLE update: 22 hours ago

TLE from 22 hours ago
0 AEHF 4 (USA 288)
1 43651U 18079A   25261.22752986 -.00000295  00000-0  00000-0 0  9998
2 43651   1.5099 340.6808 0056561  10.1554  20.8710  1.00269562 25571
Epoch: 2025-09-18T05:27Z
TLE epoch observation values (Epoch: 2025-09-18T05:27:38.579Z)
Latitude
0.77121°
Longitude
-67.36567°
Altitude
35,562.882 km
Speed
3.091 km/s
True Right ascension
00h 47m 44s
True Declination
0° 46' 14"
Sunlit
Object was in daylight at epoch
Visualization orbit readout
Latitude
Unknown
Longitude
Unknown
Altitude
Unknown
Speed
Unknown
Apparent Right ascension
Unknown
Apparent Declination
Unknown
Sunlit
N/A
Visualization observer readout
Local Sidereal Time
19:55:16
Azimuth
Unknown
Elevation
Unknown
Doppler factor
Unknown
Orbital elements
Apogee altitude
36,026.785 km
Perigee altitude
35,549.79 km
Semi-major axis
42,166.424 km
Eccentricity
0.00566
Inclination
1.5099°
RAAN
340.6808°
Arg. of periapsis
10.1554°
True anomaly
21.10344°
Mean anomaly
20.871°
Eccentric anomaly
20.98707°
Mean motion
0.25066 °/min
Orbital period
1,436.18 mins
BSTAR
0
Loading maneuver chart data...
Computing Atmospheric mass density...

Documentation

Showing up to 5 results
|